Regional Weather Roundup
Issued by NWS

Home | Current Version | Previous Version | Text Only | Print | Product List | Glossary Off
Versions: 1 2 3 4 5 6 7 8 9 10 11 12 13 14 15 16 17 18 19 20 21 22 23 24 25 26 27 28 29 30 31 32 33 34 35 36 37 38 39 40 41 42 43 44 45 46 47 48 49 50

000
ASUS43 KLOT 240308
RWRIL

ILLINOIS REGIONAL WEATHER ROUNDUP
NATIONAL WEATHER SERVICE CHICAGO/ROMEOVILLE IL
1000 PM CDT WED AUG 23 2017

NOTE: "FAIR" INDICATES FEW OR NO CLOUDS BELOW 12,000 FEET WITH NO
SIGNIFICANT WEATHER AND/OR OBSTRUCTIONS TO VISIBILITY.

* THESE STATIONS ARE NOT UNDER NWS QUALITY CONTROL. THEY ALSO MAY NOT
  REPORT WEATHER SUCH AS PRECIPITATION OR FOG.

ILZ001-002-007-009-015-016-024-240400-
NORTHWEST ILLINOIS

CITY           SKY/WX    TMP DP  RH WIND       PRES   REMARKS
MOLINE         CLEAR     60  55  83 CALM      30.04S
STERLING*      CLEAR     58  56  93 CALM      30.05R
SAVANNA*       PTCLDY    58  56  92 CALM      30.05R
$$

ILZ003-004-008-010-011-017-018-240400-
NORTH CENTRAL ILLINOIS

CITY           SKY/WX    TMP DP  RH WIND       PRES   REMARKS
ROCKFORD       CLEAR     61  56  83 CALM      30.05S
FREEPORT*      PTCLDY    55  53  92 CALM      30.06S
ROCHELLE*      PTCLDY    57  55  92 CALM      30.05S
DE KALB*       PTCLDY    60  55  84 W3        30.05S
PERU*          CLEAR     60  55  81 NW6       30.05S
$$

ILZ005-006-012>014-019>023-240400-
NORTHEAST ILLINOIS

CITY           SKY/WX    TMP DP  RH WIND       PRES   REMARKS
CHICAGO-OHARE  PTCLDY    65  55  70 S5        30.03R
CHICAGO-MIDWAY PTCLDY    68  56  65 SE3       30.03R
AURORA         CLEAR     60  57  89 CALM      30.04R
LANSING*       CLEAR     60  57  91 CALM      30.04R
JOLIET*        CLEAR     65  58  80 CALM      30.03S
WAUKEGAN       CLEAR     58  57  97 SW3       30.02S
DUPAGE AIRPORT CLEAR     60  56  86 CALM      30.03R
KANKAKEE*      CLEAR     63  55  77 E3        30.04S
WHEELING       CLEAR     63  58  83 CALM      30.04S
MORRIS*        CLEAR     59  55  85 NW3       30.02S
ROMEOVILLE*    PTCLDY    63  57  80 CALM      30.04R
NORTHERLY ISL    N/A     67  55  65 E5          N/A
$$

LMZ740>746-240400-
SOUTHERN LAKE MICHIGAN

STATION/POSITION SKY/WX   TEMP    WIND        PRES    VSBY  WAVE
                          AIR SEA DIR/SP/G                  HT/PER
                          (F)     (DEG/KT/KT) (MB)    (MI)  (FT/S)
SOUTHERN BUOY              67 71  100/  2/  4 1016.7          2/ 6
WILMETTE HARBOR            69 73  160/  4/  6   N/A           1/ 5
HARRISON CRIB              69     110/  4/  5   N/A
CALUMET HARBOR             69     110/  4/  5 1016.3R
BURNS HARBOR               68     110/  6/  7 1017.3S
MICHIGAN CITY              65     140/  2/  3   N/A
MICHIGAN CITY 6N           68 74  160/  4/  6   N/A           2/ 5
ST. JOSEPH                 67 76  100/  8/ 10 1016.8          2/ 5
$$

ILZ025>027-034>036-040-047-049-050-058-095>099-240400-
WEST-CENTRAL ILLINOIS

CITY           SKY/WX    TMP DP  RH WIND       PRES   REMARKS
QUINCY         CLEAR     66  54  65 CALM      30.06S
GALESBURG*     CLEAR     57  56  97 CALM      30.07R
MACOMB*        CLEAR     58  57  96 CALM      30.08S
JACKSONVILLE*  CLEAR     59  56  90 CALM      30.06S
PITTSFIELD*    CLEAR     62  60  93 CALM      30.08S
$$

ILZ028>032-037-038-041>044-048-051>054-059>061-240400-
CENTRAL ILLINOIS

CITY           SKY/WX    TMP DP  RH WIND       PRES   REMARKS
PONTIAC        CLEAR     58  57  97 CALM      30.05S
BLOOMINGTON    CLEAR     66  53  63 NW6       30.06S
DECATUR        CLEAR     64  54  69 CALM      30.05R
PEORIA         CLEAR     62  56  80 CALM      30.05S
LACON*         CLEAR     59  57  93 CALM      30.04S
LINCOLN*       CLEAR     64  57  80 CALM      30.05S
SPRINGFIELD    CLEAR     60  58  92 CALM      30.06R
TAYLORVILLE    CLEAR     58  58  97 CALM      30.05F
$$

ILZ033-039-045-046-055>057-062-063-240400-
EAST-CENTRAL ILLINOIS

CITY           SKY/WX    TMP DP  RH WIND       PRES   REMARKS
CHAMPAIGN      CLEAR     58  54  86 NW3       30.05R
RANTOUL*       CLEAR     64  58  83 NW3       30.04S
MATTOON        CLEAR     61  57  87 W3        30.04R
PARIS*         CLEAR     54  52  93 CALM      30.05S
$$

ILZ079-100>102-240400-
SOUTHWEST ILLINOIS

CITY           SKY/WX    TMP DP  RH WIND       PRES   REMARKS
ALTON          CLEAR     61  59  94 N6        30.06R
BELLEVILLE     CLEAR     65  59  81 CALM      30.06R
CAHOKIA*       CLEAR     63  57  81 CALM      30.06R
SPARTA*        CLEAR     63  56  76 CALM      30.06S
$$

ILZ064>066-069>071-074>076-080>082-084>086-088>090-092>094-240400-
SOUTH-CENTRAL ILLINOIS

CITY           SKY/WX    TMP DP  RH WIND       PRES   REMARKS
CARBONDALE     CLEAR     62  60  93 NW3       30.04R
CAIRO*         CLEAR     63  56  79 CALM      30.03S
EFFINGHAM*     CLEAR     60  57  89 CALM      30.06S
MARION         CLEAR     63  63 100 CALM      30.05R
MT. VERNON       N/A     58  57  97 CALM      30.05R
CENTRALIA*     CLEAR     61  59  93 CALM      30.04S
SALEM*         CLEAR     61  57  88 CALM      30.05S
METROPOLIS*    CLEAR     62  58  86 CALM      30.04R
$$

ILZ067-068-072-073-078-083-087-091-240400-
SOUTHEAST ILLINOIS

CITY           SKY/WX    TMP DP  RH WIND       PRES   REMARKS
LAWRENCEVILLE  CLEAR     63  59  87 CALM      30.03S
FLORA*         CLEAR     65  57  75 NW3       30.04S
FAIRFIELD*     CLEAR     61  59  93 CALM      30.04R
HARRISBURG*    CLEAR     62  58  89 CALM      30.04S
ROBINSON*      CLEAR     57  56  97 CALM      30.05R
CARMI*         CLEAR     60  60  98 CALM      30.03R
$$

ABBREVIATIONS USED IN REMARKS
   TC - TEMPERATURE IN CELSIUS
  WCI - WIND CHILL INDEX
   HX - HEAT INDEX
  VSB - VISIBILITY
$$





USA.gov is the U.S. government's official web portal to all federal, state and local government web resources and services.